Back to catalog

SL-16 DEB

AliveLEO
NORAD 24866·DEBRIS·🇷🇺 Russia

Launched Sep 4, 1996 from Baikonur Cosmodrome

Loading…

Next Passes (next 24 hours)

TLE

FreshSource: Space-Track

Epoch: Sep 14, 2026, 10:50 UTC

1 24866U 96051H   26257.45141495 -.00000201  00000-0 -84623-4 0  9994
2 24866  71.1244 163.7385 0060104 141.4523 219.0914 14.10980190545149

Track SL-16 DEB in real time with AllMySat

Download on the App Store